TimeEDT,TemperatureF,Dew PointF,Humidity,Sea Level PressureIn,VisibilityMPH,Wind Direction,Wind SpeedMPH,Gust SpeedMPH,PrecipitationIn,Events,Conditions,WindDirDegrees,DateUTC
12:53 AM,59.0,53.1,81,30.35,10.0,SE,3.5,-,N/A,,Clear,130,2011-10-08 04:53:00
1:53 AM,57.9,52.0,81,30.34,9.0,SSE,4.6,-,N/A,,Clear,150,2011-10-08 05:53:00
2:53 AM,57.0,52.0,83,30.34,9.0,SSE,5.8,-,N/A,,Clear,150,2011-10-08 06:53:00
3:53 AM,55.0,51.1,86,30.34,8.0,SE,4.6,-,N/A,,Clear,140,2011-10-08 07:53:00
4:53 AM,53.1,50.0,89,30.35,6.0,SE,3.5,-,N/A,,Clear,140,2011-10-08 08:53:00
5:53 AM,53.1,50.0,89,30.36,6.0,ESE,4.6,-,N/A,,Clear,120,2011-10-08 09:53:00
6:53 AM,53.1,50.0,89,30.37,6.0,SE,4.6,-,N/A,,Clear,130,2011-10-08 10:53:00
7:53 AM,53.1,50.0,89,30.39,5.0,SE,5.8,-,N/A,,Clear,140,2011-10-08 11:53:00
8:53 AM,55.9,52.0,87,30.40,6.0,SSE,5.8,-,N/A,,Clear,160,2011-10-08 12:53:00
9:53 AM,63.0,55.0,75,30.41,9.0,SSE,8.1,-,N/A,,Clear,160,2011-10-08 13:53:00
10:53 AM,68.0,57.0,68,30.40,10.0,South,8.1,-,N/A,,Clear,170,2011-10-08 14:53:00
11:53 AM,73.9,57.0,55,30.40,10.0,SSW,4.6,-,N/A,,Clear,210,2011-10-08 15:53:00
12:53 PM,77.0,55.0,47,30.39,10.0,SW,3.5,-,N/A,,Clear,230,2011-10-08 16:53:00
3:53 PM,80.1,53.1,39,30.33,4.0,SSW,5.8,-,N/A,,Haze,210,2011-10-08 19:53:00
4:02 PM,80.6,51.8,37,30.35,2.5,Calm,Calm,-,N/A,,Haze,0,2011-10-08 20:02:00
4:10 PM,80.6,53.6,39,30.34,5.0,Calm,Calm,-,N/A,,Haze,0,2011-10-08 20:10:00
4:53 PM,80.1,54.0,40,30.32,5.0,SSE,6.9,-,N/A,,Haze,160,2011-10-08 20:53:00
5:53 PM,78.1,55.0,45,30.32,6.0,South,6.9,-,N/A,,Haze,170,2011-10-08 21:53:00
6:53 PM,75.0,54.0,48,30.32,10.0,SE,3.5,-,N/A,,Clear,140,2011-10-08 22:53:00
8:53 PM,66.9,54.0,63,30.35,10.0,SSE,5.8,-,N/A,,Clear,150,2011-10-09 00:53:00
9:53 PM,64.9,52.0,63,30.35,10.0,SE,5.8,-,N/A,,Clear,140,2011-10-09 01:53:00
10:53 PM,64.0,51.1,63,30.35,10.0,SSE,6.9,-,N/A,,Clear,150,2011-10-09 02:53:00
11:53 PM,62.1,51.1,67,30.35,10.0,SSE,6.9,-,N/A,,Clear,150,2011-10-09 03:53:00